Weather History for Khon Kaen, Thailand

Change the Weather History Date:

Sunday, November 10, 2013

  Actual Average Record
Temperature  
Mean Temperature 80 °F -  
Max Temperature 91 °F 86 °F - ()
Min Temperature 70 °F 65 °F - ()
Cooling Degree Days 16    
Growing Degree Days 30 (Base 50)    
Moisture  
Dew Point 70 °F    
Average Humidity 71    
Maximum Humidity 94    
Minimum Humidity 36    
Precipitation  
Precipitation 0.00 in 0.02 in - ()
Sea Level Pressure  
Sea Level Pressure 29.77 in    
Wind  
Wind Speed 6 mph ()    
Max Wind Speed 12 mph    
Max Gust Speed -    
Visibility 6.2 miles    
Events      
T = Trace of Precipitation, MM = Missing Value Source: Averaged Metar Reports

Daily Weather History Graph

Daily Weather History Graph

Search for Another Location

Airport:

Trip Planner

Search our weather history database for the weather conditions in past years. The results will help you decide how hot, cold, wet, or windy it might be!

Date:

Astronomy

Nov. 10, 2013 Rise Set
Actual Time 6:09 AM ICT 5:35 PM ICT
Civil Twilight 5:47 AM ICT 5:57 PM ICT
Nautical Twilight 5:21 AM ICT 6:23 PM ICT
Astronomical Twilight 4:55 AM ICT 6:49 PM ICT
Moon 12:18 PM ICT (11/10) No Moon Set
Length of Visible Light 12h 10m
Length of Day
11h 25m
Waxing Crescent, 49% of the Moon is Illuminated
Nov 10
Waxing Crescent
Nov 10
First Quarter
Nov 17
Full
Nov 26
Last Quarter
Dec 3
New

Hourly Weather History & Observations

Time (ICT) Temp. Heat Index Dew Point Humidity Pressure Visibility Wind Dir Wind Speed Gust Speed Precip Events Conditions
12:00 AM 75.2 °F - 69.8 °F 83% 29.83 in - North 6.9 mph - N/A   Clear
1:00 AM 75 °F - 67 °F 71% 29.80 in 6 mi North 5.8 mph - -   Scattered Clouds
1:00 AM 73.4 °F - 69.8 °F 88% 29.80 in 6.2 mi North 8.1 mph - N/A   Partly Cloudy
2:00 AM 73.4 °F - 68.0 °F 83% 29.80 in 6.2 mi North 8.1 mph - N/A   Mostly Cloudy
3:00 AM 73.4 °F - 68.0 °F 83% 29.77 in 6.2 mi North 8.1 mph - N/A   Mostly Cloudy
4:00 AM 71.6 °F - 68.0 °F 88% 29.77 in 6.2 mi NE 4.6 mph - N/A   Mostly Cloudy
5:00 AM 69.8 °F - 68.0 °F 94% 29.77 in 6.2 mi Variable 1.2 mph - N/A   Mostly Cloudy
6:00 AM 69.8 °F - 68.0 °F 94% 29.77 in 6.2 mi NNW 3.5 mph - N/A   Mostly Cloudy
7:00 AM 72 °F - 65 °F 74% 29.79 in 6 mi North 2.3 mph - -   Scattered Clouds
7:00 AM 71.6 °F - 68.0 °F 88% 29.80 in 6.2 mi North 6.9 mph - N/A   Mostly Cloudy
8:00 AM 77.0 °F - 69.8 °F 78% 29.80 in 6.2 mi North 8.1 mph - N/A   Mostly Cloudy
9:00 AM 80.6 °F 83.9 °F 69.8 °F 70% 29.83 in 6.2 mi North 6.9 mph - N/A   Mostly Cloudy
10:00 AM 86.0 °F 90.4 °F 69.8 °F 58% 29.83 in 6.2 mi North 9.2 mph - N/A   Mostly Cloudy
11:00 AM 87.8 °F 93.8 °F 71.6 °F 58% 29.80 in 6.2 mi North 9.2 mph - N/A   Mostly Cloudy
12:00 PM 87.8 °F 95.6 °F 73.4 °F 62% 29.77 in 6.2 mi NNW 9.2 mph - N/A   Mostly Cloudy
1:00 PM 91 °F - 67 °F 36% 29.70 in 6 mi NNE 11.5 mph - -   Scattered Clouds
1:00 PM 91.4 °F 98.4 °F 71.6 °F 52% 29.74 in 6.2 mi NNE 11.5 mph - N/A   Mostly Cloudy
2:00 PM 91.4 °F 98.4 °F 71.6 °F 52% 29.71 in 6.2 mi NNE 10.4 mph - N/A   Mostly Cloudy
3:00 PM 91.4 °F 98.4 °F 71.6 °F 52% 29.68 in 6.2 mi North 9.2 mph - N/A   Mostly Cloudy
4:00 PM 89.6 °F 96.2 °F 71.6 °F 55% 29.68 in 6.2 mi North 6.9 mph - N/A   Mostly Cloudy
5:00 PM 86.0 °F 91.8 °F 71.6 °F 62% 29.71 in 6.2 mi North 3.5 mph - N/A   Mostly Cloudy
6:00 PM 84.2 °F 92.3 °F 75.2 °F 74% 29.74 in 6.2 mi Variable 2.3 mph - N/A   Mostly Cloudy
7:00 PM 85 °F - 69 °F 50% 29.72 in 6 mi NNE 3.5 mph - -   Scattered Clouds
7:00 PM 82.4 °F 88.2 °F 73.4 °F 74% 29.74 in 6.2 mi North 3.5 mph - N/A   Mostly Cloudy
9:00 PM 80.6 °F 86.2 °F 75.2 °F 84% 29.77 in 6.2 mi Variable 2.3 mph - N/A   Mostly Cloudy
11:00 PM 78.8 °F - 73.4 °F 83% 29.77 in 6.2 mi WSW 4.6 mph - N/A   Mostly Cloudy